Location: Unspecified
(0.0000°N, 0.0000°E)
Time: 03:27:55
(UTC+02:00)

SWIFT - Visible Passes

Search period start: 29 March 2017 00:00
Search period end: 08 April 2017 00:00
Orbit: 548 x 563 km, 20.6° (Epoch: 27 March)

Date Brightness Start Highest point End Pass type
(mag) Time Alt. Az. Time Alt. Az. Time Alt. Az.
29 Mar 4.6 20:38:28 10° N 20:40:19 12° NNE 20:42:10 10° NE visible
29 Mar 5.2 22:18:32 10° NW 22:19:06 13° NW 22:19:06 13° NW visible
30 Mar 4.4 20:32:31 10° NNW 20:35:13 16° NNE 20:37:55 10° ENE visible
30 Mar 4.9 22:13:09 10° NW 22:14:23 18° NW 22:14:23 18° NW visible
31 Mar 4.0 20:26:49 10° NNW 20:30:06 21° NNE 20:33:23 10° ENE visible
31 Mar 4.5 22:07:52 10° WNW 22:09:41 24° WNW 22:09:41 24° WNW visible
01 Apr 3.6 20:21:14 10° NW 20:24:57 28° NNE 20:28:40 10° E visible
01 Apr 4.1 22:02:40 10° WNW 22:05:00 31° WNW 22:05:00 31° WNW visible
02 Apr 4.9 06:39:03 10° S 06:40:10 11° SSE 06:41:17 10° SSE visible
02 Apr 3.8 21:57:35 10° W 22:00:19 35° WSW 22:00:19 35° WSW visible
03 Apr 4.6 06:33:58 13° S 06:35:05 14° SSE 06:37:22 10° SE visible
03 Apr 3.8 21:52:36 10° W 21:55:39 32° SW 21:55:39 32° SW visible
04 Apr 4.3 06:29:16 18° S 06:29:59 18° SSE 06:32:57 10° ESE visible
04 Apr 4.0 21:47:45 10° W 21:50:58 26° SSW 21:50:58 26° SSW visible
05 Apr 3.9 06:24:36 24° SSE 06:24:51 24° SSE 06:28:19 10° ESE visible
05 Apr 4.3 21:43:03 10° WSW 21:46:16 20° SSW 21:46:16 20° SSW visible
06 Apr 3.6 06:19:55 33° SSE 06:19:55 33° SSE 06:23:31 10° E visible
06 Apr 4.6 21:38:33 10° SW 21:41:08 16° SSW 21:41:32 15° SSW visible
07 Apr 3.3 06:15:14 42° SE 06:15:14 42° SE 06:18:34 10° E visible
07 Apr 4.8 21:34:22 10° SW 21:36:03 12° SSW 21:36:46 12° S visible
